Weather History for Olive Branch, MS

Change the Weather History Date:

Tuesday, December 17, 2013

  Actual Average (KMEM) Record (KMEM)
Temperature  
Mean Temperature 45 °F 43 °F  
Max Temperature 57 °F 52 °F 76 °F (1924)
Min Temperature 33 °F 35 °F 11 °F (1932)
Degree Days  
Heating Degree Days 20 22  
Month to date heating degree days 343  
Since 1 July heating degree days 842  
Cooling Degree Days 0 0  
Month to date cooling degree days 0  
Year to date cooling degree days 2256  
Moisture  
Dew Point 37 °F    
Average Humidity 80    
Maximum Humidity 100    
Minimum Humidity 51    
Precipitation  
Precipitation 0.00 in 0.19 in 2.44 in (1933)
Month to date precipitation 3.33  
Year to date precipitation 51.27  
Snow  
Snow 0.00 in 0.00 in 0.60 in (1932)
Month to date snowfall 0.0  
Since 1 July snowfall T  
Snow Depth -    
Sea Level Pressure  
Sea Level Pressure 30.23 in    
Wind  
Wind Speed 8 mph (SW)    
Max Wind Speed 13 mph    
Max Gust Speed 17 mph    
Visibility 10 miles    
Events      
T = Trace of Precipitation, MM = Missing Value Source: NWS Daily Summary

Daily Weather History Graph

Daily Weather History Graph

Search for Another Location

Airport:

Trip Planner

Search our weather history database for the weather conditions in past years. The results will help you decide how hot, cold, wet, or windy it might be!

Date:

Astronomy

Dec. 17, 2013 Rise Set
Actual Time 7:01 AM CST 4:49 PM CST
Civil Twilight 6:32 AM CST 5:17 PM CST
Nautical Twilight 6:01 AM CST 5:49 PM CST
Astronomical Twilight 5:30 AM CST 6:20 PM CST
Moon 5:27 PM CST (12/17) 6:59 AM CST (12/17)
Length of Visible Light 10h 44m
Length of Day
9h 48m
Full, 100% of the Moon is Illuminated
Dec 17
Full
Dec 25
Last Quarter
Jan 1
New
Jan 7
First Quarter
Jan 15
Full

Hourly Weather History & Observations

Time (CST) Temp. Windchill Dew Point Humidity Pressure Visibility Wind Dir Wind Speed Gust Speed Precip Events Conditions
12:15 AM 39.2 °F 32.5 °F 35.6 °F 87% 30.17 in 10.0 mi SSW 10.4 mph - 0.00 in   Clear
12:35 AM 42.8 °F 37.0 °F 35.6 °F 76% 30.17 in 10.0 mi SSW 10.4 mph - 0.00 in   Clear
12:55 AM 44.6 °F 38.8 °F 35.6 °F 71% 30.17 in 9.0 mi SW 11.5 mph - 0.00 in   Clear
1:15 AM 44.6 °F 38.8 °F 35.6 °F 71% 30.18 in 10.0 mi SW 11.5 mph - 0.00 in   Clear
1:35 AM 44.6 °F 38.4 °F 35.6 °F 71% 30.18 in 10.0 mi SW 12.7 mph - 0.00 in   Clear
1:55 AM 44.6 °F 38.8 °F 35.6 °F 71% 30.18 in 10.0 mi SSW 11.5 mph - 0.00 in   Clear
2:15 AM 42.8 °F 36.6 °F 35.6 °F 76% 30.18 in 10.0 mi SSW 11.5 mph - 0.00 in   Clear
2:35 AM 42.8 °F 36.2 °F 35.6 °F 76% 30.18 in 10.0 mi SSW 12.7 mph - 0.00 in   Clear
2:55 AM 42.8 °F 37.0 °F 35.6 °F 76% 30.18 in 10.0 mi SSW 10.4 mph - 0.00 in   Clear
3:15 AM 42.8 °F 37.0 °F 35.6 °F 76% 30.18 in 10.0 mi SSW 10.4 mph - 0.00 in   Clear
3:35 AM 42.8 °F 36.2 °F 35.6 °F 76% 30.16 in 10.0 mi SSW 12.7 mph 17.3 mph 0.00 in   Clear
3:55 AM 41.0 °F 34.7 °F 35.6 °F 81% 30.17 in 10.0 mi SSW 10.4 mph - 0.00 in   Clear
4:15 AM 41.0 °F 34.7 °F 35.6 °F 81% 30.17 in 10.0 mi SSW 10.4 mph - 0.00 in   Clear
4:35 AM 41.0 °F 34.7 °F 35.6 °F 81% 30.17 in 10.0 mi SSW 10.4 mph - 0.00 in   Clear
4:55 AM 41.0 °F 35.8 °F 35.6 °F 81% 30.18 in 10.0 mi SW 8.1 mph - 0.00 in   Clear
5:15 AM 39.2 °F 33.6 °F 35.6 °F 87% 30.18 in 10.0 mi SW 8.1 mph - 0.00 in   Clear
5:35 AM 39.2 °F 34.2 °F 35.6 °F 87% 30.19 in 8.0 mi SW 6.9 mph - 0.00 in   Clear
6:50 AM 35.6 °F 30.7 °F 35.6 °F 100% 30.19 in 10.0 mi SSW 5.8 mph - N/A   Partly Cloudy
7:50 AM 39.2 °F 34.2 °F 37.4 °F 93% 30.20 in 10.0 mi SSW 6.9 mph - N/A   Partly Cloudy
8:50 AM 44.6 °F 40.7 °F 37.4 °F 76% 30.21 in 10.0 mi SW 6.9 mph - N/A   Clear
9:50 AM 50.0 °F - 37.4 °F 62% 30.23 in 10.0 mi SSW 6.9 mph - N/A   Clear
10:55 AM 53.6 °F - 39.2 °F 58% 30.21 in 10.0 mi WSW 8.1 mph - N/A   Clear
11:50 AM 55.4 °F - 39.2 °F 54% 30.19 in 10.0 mi West 5.8 mph - N/A   Clear
12:50 PM 57.2 °F - 39.2 °F 51% 30.19 in 10.0 mi West 6.9 mph - N/A   Clear
1:50 PM 57.2 °F - 39.2 °F 51% 30.19 in 10.0 mi WNW 9.2 mph 17.3 mph N/A   Clear
2:50 PM 57.2 °F - 39.2 °F 51% 30.21 in 10.0 mi NNW 12.7 mph - N/A   Clear
3:50 PM 55.4 °F - 39.2 °F 54% 30.23 in 10.0 mi NW 6.9 mph - N/A   Clear
4:50 PM 48.2 °F - 37.4 °F 66% 30.24 in 10.0 mi North 9.2 mph - N/A   Clear
5:50 PM 46.4 °F - 37.4 °F 71% 30.26 in 10.0 mi Calm Calm - N/A   Clear
6:50 PM 44.6 °F - 37.4 °F 76% 30.27 in 10.0 mi Calm Calm - N/A   Clear
7:50 PM 42.8 °F - 37.4 °F 81% 30.27 in 10.0 mi Calm Calm - N/A   Clear
7:55 PM 41.0 °F - 37.4 °F 87% 30.27 in 10.0 mi Calm Calm - 0.00 in   Clear
8:15 PM 39.2 °F - 37.4 °F 93% 30.28 in 9.0 mi Calm Calm - 0.00 in   Clear
8:35 PM 37.4 °F 34.9 °F 37.4 °F 100% 30.28 in 10.0 mi SSW 3.5 mph - 0.00 in   Clear
8:55 PM 39.2 °F - 37.4 °F 93% 30.29 in 9.0 mi Calm Calm - 0.00 in   Clear
9:15 PM 37.4 °F - 37.4 °F 100% 30.29 in 10.0 mi Calm Calm - 0.00 in   Clear
9:35 PM 37.4 °F - 37.4 °F 100% 30.29 in 10.0 mi Calm Calm - 0.00 in   Clear
9:55 PM 37.4 °F - 37.4 °F 100% 30.30 in 10.0 mi Calm Calm - 0.00 in   Clear
10:15 PM 35.6 °F - 35.6 °F 100% 30.30 in 10.0 mi Calm Calm - 0.00 in   Clear
10:35 PM 37.4 °F - 37.4 °F 100% 30.31 in 9.0 mi Calm Calm - 0.00 in   Clear
10:55 PM 37.4 °F - 37.4 °F 100% 30.31 in 10.0 mi Calm Calm - 0.00 in   Clear
11:15 PM 37.4 °F - 37.4 °F 100% 30.30 in 9.0 mi Calm Calm - 0.00 in   Clear
11:35 PM 33.8 °F - 33.8 °F 100% 30.30 in 10.0 mi Calm Calm - 0.00 in   Clear
11:55 PM 33.8 °F - 33.8 °F 100% 30.31 in 9.0 mi Calm Calm - 0.00 in   Clear